Simultaneous Nadir Overpasses (SNOs) Predictions

Prediction of SNOs between NOAA-19 and TERRA Satellite Orbit:

Table of predicted SNOs for the next 14.0 days since TLE Epoch: 8/29/2015
Index Date (NOAA-19) Time (NOAA-19) Lat,Lon (NOAA-19) SZA (NOAA-19 ) Date (TERRA) Time (TERRA) Lat,Lon (TERRA) SZA (TERRA ) Distance(km) Time Diff (sec)
1 08/31/2015 05:23:40 72.47, 103.40 63.68 08/31/2015 05:24:47 72.46, 103.45 63.67 2.29 67
2 08/31/2015 06:14:43 -72.37, -89.15 116.41 08/31/2015 06:14:17 -72.34, -89.14 116.45 3.27 26
3 09/02/2015 10:58:01 -72.40,-160.01 115.58 09/02/2015 10:58:31 -72.40,-160.10 115.58 2.91 30
4 09/02/2015 11:48:57 72.32, 7.42 64.36 09/02/2015 11:47:58 72.31, 7.38 64.34 2.11 59
5 09/04/2015 15:41:29 -72.94, 128.05 114.25 09/04/2015 15:42:38 -72.82, 129.64 114.33 53.81 69
6 09/04/2015 16:32:16 72.40, -63.53 65.25 09/04/2015 16:32:11 72.41, -63.49 65.26 1.61 5
7 09/06/2015 21:15:35 72.48,-134.48 66.15 09/06/2015 21:16:25 72.45,-134.48 66.12 3.53 50
8 09/06/2015 22:06:37 -72.37, 32.98 113.95 09/06/2015 22:05:54 -72.39, 33.04 113.94 2.61 43
9 09/09/2015 02:49:55 -72.43, -37.91 113.07 09/09/2015 02:50:08 -72.42, -37.97 113.08 1.92 13
10 09/09/2015 03:40:49 72.19, 129.82 66.73 09/09/2015 03:39:36 72.27, 129.40 66.78 16.57 73
11 09/11/2015 07:33:13 -72.49,-108.83 112.17 09/11/2015 07:34:21 -72.49,-108.89 112.16 2.15 68
12 09/11/2015 08:24:10 72.38, 58.65 67.75 09/11/2015 08:23:48 72.39, 58.57 67.75 2.78 22
